Regional Weather Roundup
Issued by NWS

Home | Current Version | Previous Version | Text Only | Print | Product List | Glossary Off
Versions: 1 2 3 4 5 6 7 8 9 10 11 12 13 14 15 16 17 18 19 20 21 22 23 24 25 26 27 28 29 30 31 32 33 34 35 36 37 38 39 40 41 42 43 44 45 46 47 48 49 50

179
ASUS45 KBOU 290107
RWRCO

WEATHER ROUNDUP FOR COLORADO
NATIONAL WEATHER SERVICE DENVER/BOULDER CO
700 PM MDT SAT MAY 28 2016

NOTE: "FAIR" INDICATES FEW OR NO CLOUDS BELOW 12000 FEET WITH NO
SIGNIFICANT WEATHER AND/OR OBSTRUCTIONS TO VISIBILITY.

COZ001>005-013-030-031-290200-
...NORTHWEST COLORADO...

CITY           SKY/WX    TMP DP  RH WIND       PRES   REMARKS
CRAIG          PTSUNNY   62  35  36 SW12      30.10R
HAYDEN         FAIR      61  34  36 W7        30.11R
MEEKER         PTSUNNY   63  32  31 SW6       30.12R
MOUNT WERNER   NOT AVBL
STEAMBOAT SPGS FAIR      61  33  34 W8        30.13R
WALDEN         NOT AVBL
$$

COZ006>008-011-290200-
...WEST CENTRAL VALLEYS...

CITY           SKY/WX    TMP DP  RH WIND       PRES   REMARKS
GRAND JUNCTION FAIR      74  29  19 CALM      29.99S
MONTROSE       FAIR      70  27  20 SW7       30.07R
EAGLE          SUNNY     63  28  27 CALM      30.16R
RIFLE          FAIR      66  35  31 CALM      30.08R
DELTA          FAIR      78  23  13 CALM      30.02S
NUCLA          FAIR      70  27  19 W6        30.10S
$$

COZ017>023-064>068-290200-
...SOUTHWEST COLORADO...

CITY           SKY/WX    TMP DP  RH WIND       PRES   REMARKS
DURANGO        FAIR      68  27  21 NW10      30.11R
CORTEZ         FAIR      73  20  13 VRB6      30.06S
PAGOSA SPRINGS FAIR      63  26  25 NW5       30.19S
TELLURIDE      PTSUNNY   56  26  31 CALM      30.28R
WOLF CREEK PAS FAIR      39  23  52 SW15G22   30.44R
$$

COZ009-010-012-014-032>034-037-058>063-290200-
...CENTRAL COLORADO...

CITY           SKY/WX    TMP DP  RH WIND       PRES   REMARKS
ASPEN          PTSUNNY   54  33  45 N12       30.22R
BUENA VISTA    FAIR      62  21  20 N9        30.18R
COPPER MTN     NOT AVBL
BERTHOUD PASS  TSTM      30  21  69 MISG      30.41R
COTTONWOOD PAS FAIR      57  16  19 CALM      30.29R
GUNNISON       FAIR      63  21  20 SW12      30.18R
KREMMLING      CLOUDY    54  41  62 SE3       30.21R
LEADVILLE      FAIR      46  26  45 N8        30.29R
MONARCH PASS   FAIR      39  28  65 S17G26    30.50R
SALIDA         FAIR      60  33  36 S13G18    30.23R
SUNLIGHT       FAIR      46  30  53 CALM      30.38R
WILKERSON PASS TSTM      37  27  65 SW3       30.39R
$$

COZ069>075-290200-
...SAN LUIS VALLEY/SANGRE DE CRISTO MOUNTAINS...

CITY           SKY/WX    TMP DP  RH WIND       PRES   REMARKS
ALAMOSA        PTSUNNY   61  33  35 E9        30.18R
LA VETA PASS   FAIR      45  32  61 S3        30.33S
SAGUACHE       PTSUNNY   59  30  33 N7        30.22R
$$

COZ035-036-038>040-290200-
...NORTHERN COLORADO FRONT RANGE...

CITY           SKY/WX    TMP DP  RH WIND       PRES   REMARKS
DENVER INTL AP PTSUNNY   60  46  59 SE9       30.06R
DMNS CITY PARK   N/A     64  42  45 E13G21    30.06R
AURORA         MOSUNNY   62  46  55 E14       30.08R
FRONT RANGE AP PTSUNNY   57  48  72 E15       30.08S
ERIE MUNI ARPT FAIR      63  42  44 SE10      30.06R
BOULDER MUN AP FAIR      63  39  42 NE3       30.05R
CENTENNIAL     PTSUNNY   61  42  49 E10       30.09R
BROOMFIELD     NOT AVBL
FORT COLLINS   FAIR      64  45  48 SE3       30.05R
LONGMONT       FAIR      67  42  39 E7        30.07R
$$

COZ041-046-047-076>085-087-088-290200-
...PIKES PEAK/PALMER DIVIDE AND SOUTHERN FOOTHILLS...

CITY           SKY/WX    TMP DP  RH WIND       PRES   REMARKS
COLO. SPRINGS  FAIR      65  37  35 S17       30.12R
A. F. ACADEMY  FAIR      63  37  39 SE20      30.10R
SCHRIEVER AFB  NOT AVBL
ELLICOTT       FAIR     N/A N/A N/A S9        30.11R
FALCON         FAIR      62  35  36 S15       30.16R
FORT CARSON    FAIR      64  41  44 S8        30.09R
LIMON          FAIR      63  45  51 S8        30.09R
MONUMENT HILL  CLOUDY    55  37  50 S9        30.16R
TRINIDAD       FAIR      68  37  32 SE10      30.09R
$$

COZ042>045-048>051-090-091-290200-
...NORTHEAST COLORADO...

CITY           SKY/WX    TMP DP  RH WIND       PRES   REMARKS
GREELEY ARPT   FAIR      66  43  42 SE7       30.05R
AKRON          FAIR      66  49  54 CALM      30.05R
BURLINGTON     FAIR      71  44  37 SW7       30.04R
WRAY           FAIR      68  46  45 N5        30.00R
STERLING       FAIR      68  50  52 CALM      29.99S
HOLYOKE        FAIR      73  45  35 SW5       30.01R
FORT MORGAN    FAIR      62  46  57 S6        30.06R
$$

COZ086-089-092>099-290200-
...SOUTHEAST COLORADO...

CITY           SKY/WX    TMP DP  RH WIND       PRES   REMARKS
PUEBLO         CLOUDY    74  45  35 NW3       30.05R THUNDER
LA JUNTA       FAIR      76  37  24 N10       30.00S
LAMAR          FAIR      76  46  34 E13       29.99R
SPRINGFIELD      N/A     69  43  38 S9        30.04F
$$




USA.gov is the U.S. government's official web portal to all federal, state and local government web resources and services.